x

9419750 - Crescent City, Ca (cecc1) Weather Station

6:54am - Sun 21st Dec 2014 All times are PST. -8 hours from GMT.

  • Wind
    9mph, 11mph gusts
  • Sea Temp 57°f
  • Air Temp 58°f
  • Sea Pressure 1022.4mb
  • 9419750 - Crescent City, Ca
  • 9419750 - Crescent City, Ca

More Historic Weather Station data

Upgrade to MSW Pro to gain access to the past 30 days of data for over 8000 Wavebouys and Weather Stations around the globe.

Join Pro

Comparision Forecast

View Surf forecast
   
Sun 12/21 6:54am 9 11 mph 1022.4mb 57f 58f
6:48am 9 13 mph 1022.5mb 57f 58f
6:36am 9 13 mph 1022.4mb 57f 58f
6:30am 10 13 mph 1022.4mb 57f 58f
6:24am 9 14 mph 1022.5mb 57f 58f
6:18am 11 14 mph 1022.5mb 57f 58f
6:12am 10 15 mph 1022.5mb 57f 58f
6:06am 9 14 mph 1022.4mb 57f 58f
6:00am 10 14 mph 1022.4mb 57f 58f
5:54am 10 14 mph 1022.3mb 57f 58f
5:48am 9 11 mph 1022.2mb 57f 58f
5:42am 9 13 mph 1022mb 57f 58f
5:36am 8 11 mph 1022.1mb 57f 58f
5:30am 9 11 mph 1022mb 57f 58f
5:24am 9 11 mph 1021.9mb 57f 58f
5:18am 8 10 mph 1021.8mb 57f 58f
5:12am 8 13 mph 1021.8mb 57f 58f
5:06am 10 13 mph 1021.9mb 57f 58f
5:00am 9 11 mph 1021.9mb 57f 58f
4:54am 7 11 mph 1021.9mb 57f 58f
4:48am 8 11 mph 1021.8mb 57f 58f
4:42am 8 13 mph 1021.8mb 57f 58f
4:36am 6 11 mph 1021.7mb 57f 58f
4:24am 11 15 mph 1021.6mb 57f 58f
4:18am 11 15 mph 1021.6mb 57f 58f
4:12am 13 15 mph 1021.6mb 57f 58f
4:06am 13 15 mph 1021.7mb 57f 58f
4:00am 11 14 mph 1021.7mb 57f 58f
3:54am 11 16 mph 1021.8mb 57f 58f
3:48am 10 16 mph 1021.8mb 57f 58f
3:42am 14 17 mph 1021.8mb 57f 58f
3:30am 17 21 mph 1021.6mb 57f 58f
3:24am 16 20 mph 1021.5mb 57f 58f
3:18am 17 22 mph 1021.5mb 57f 57f
3:12am 18 22 mph 1021.3mb 57f 58f
3:06am 16 21 mph 1021.3mb 57f 58f
3:00am 18 22 mph 1021.3mb 57f 58f
2:54am 18 22 mph 1021.4mb 57f 58f
2:48am 17 22 mph 1021.5mb 57f 58f
2:42am 20 23 mph 1021.5mb 57f 58f
2:36am 18 24 mph 1021.5mb 57f 58f
2:30am 20 23 mph 1021.4mb 57f 58f
2:24am 20 23 mph 1021.4mb 57f 58f
2:18am 18 23 mph 1021.4mb 57f 58f
2:12am 17 23 mph 1021.3mb 57f 58f
2:06am 18 23 mph 1021.3mb 57f 58f
2:00am 18 23 mph 1021.3mb 57f 58f
1:54am 18 23 mph 1021.1mb 57f 57f
1:48am 17 22 mph 1020.9mb 57f 57f
1:42am 20 22 mph 1020.7mb 57f 57f
1:36am 18 22 mph 1020.7mb 57f 57f
1:30am 16 21 mph 1020.8mb 57f 57f
1:24am 18 22 mph 1020.7mb 57f 57f
1:18am 20 23 mph 1020.6mb 57f 57f
1:12am 20 23 mph 1020.5mb 57f 57f
1:06am 20 24 mph 1020.6mb 57f 57f
1:00am 20 24 mph 1020.5mb 57f 57f
12:54am 17 22 mph 1020.4mb 57f 57f
12:48am 20 23 mph 1020.3mb 57f 57f
12:42am 20 23 mph 1020.3mb 57f 57f
12:36am 22 25 mph 1020.3mb 57f 57f
12:30am 20 23 mph 1020.2mb 57f 57f
12:24am 21 24 mph 1020.1mb 57f 57f
12:18am 21 24 mph 1020.1mb 57f 57f
12:12am 22 24 mph 1020.1mb 57f 57f
12:06am 18 25 mph 1020.1mb 57f 57f
12:00am 21 23 mph 1020.2mb 57f 57f
Sat 12/20 11:54pm 18 22 mph 1020.3mb 57f 57f
11:48pm 20 23 mph 1020.4mb 57f 57f
11:42pm 20 22 mph 1020.4mb 57f 57f
11:36pm 18 22 mph 1020.5mb 57f 57f
11:30pm 18 21 mph 1020.5mb 57f 57f
11:24pm 17 21 mph 1020.5mb 57f 57f
11:18pm 16 18 mph 1020.4mb 57f 57f
11:12pm 15 18 mph 1020.3mb 57f 58f
11:06pm 16 21 mph 1020.1mb 57f 58f
11:00pm 16 22 mph 1020.2mb 57f 58f
10:54pm 16 22 mph 1020.3mb 57f 58f
10:48pm 17 20 mph 1020.1mb 57f 58f
10:42pm 15 18 mph 1020.2mb - 58f
10:36pm 16 21 mph 1020.3mb - 58f
10:30pm 15 20 mph 1020.3mb - 58f
10:24pm 14 18 mph 1020.2mb 57f 58f
10:18pm 16 21 mph 1020mb 57f 58f
10:12pm 18 22 mph 1019.8mb 57f 58f
10:06pm 16 23 mph 1019.8mb 57f 57f
10:00pm 21 24 mph 1019.8mb 57f 57f
9:54pm 20 22 mph 1019.7mb 57f 57f
9:48pm 17 22 mph 1019.5mb 57f 57f
9:42pm 16 23 mph 1019.5mb 57f 58f
9:36pm 17 23 mph 1019.6mb 57f 58f
9:30pm 18 24 mph 1019.6mb 57f 57f
9:24pm 20 25 mph 1019.6mb 57f 57f
9:18pm 21 25 mph 1019.5mb 57f 57f
9:12pm 16 22 mph 1019.4mb 57f 57f
9:06pm 21 24 mph 1019.2mb 57f 57f
9:00pm 18 24 mph 1019.2mb 56f 57f
8:54pm 18 25 mph 1019mb 56f 57f
8:48pm 22 24 mph 1018.9mb 56f 57f
8:36pm 21 32 mph 1018.7mb 56f 57f
8:30pm 18 24 mph 1018.8mb 56f 57f
8:24pm 18 24 mph 1018.7mb 56f 57f
8:18pm 21 24 mph 1018.7mb 56f 57f
8:12pm 21 24 mph 1018.6mb 56f 57f
8:06pm 21 25 mph 1018.6mb 56f 57f
8:00pm 21 25 mph 1018.4mb 56f 57f
7:54pm 23 25 mph 1018.4mb 56f 57f
7:48pm 22 25 mph 1018.3mb 56f 57f
7:42pm 23 28 mph 1018.3mb 56f 57f
7:36pm 20 28 mph 1018.3mb 56f 57f
7:30pm 23 26 mph 1018.2mb 56f 57f
7:24pm 20 25 mph 1018.3mb 56f 57f
7:18pm 20 25 mph 1018.3mb 56f 57f
7:12pm 22 25 mph 1018.1mb 56f 57f
7:06pm 22 25 mph 1018mb 56f 57f
7:00pm 22 26 mph 1017.9mb 56f 57f
6:54pm 23 26 mph 1017.8mb 56f 57f
6:48pm 22 26 mph 1017.6mb 56f 57f
6:42pm 23 26 mph 1017.6mb 56f 57f
6:36pm 22 26 mph 1017.7mb 56f 57f
6:30pm 23 28 mph 1017.8mb 56f 57f
6:24pm 24 29 mph 1017.8mb 56f 57f
6:18pm 26 30 mph 1017.6mb 56f 57f
6:12pm 24 28 mph 1017.6mb 56f 57f
6:06pm 23 32 mph 1017.5mb 56f 57f
6:00pm 22 26 mph 1017.4mb 56f 57f
5:54pm 25 30 mph 1017.3mb 56f 57f
5:48pm 24 31 mph 1017.3mb 56f 57f
5:42pm 26 32 mph 1017mb 56f 57f
5:36pm 25 31 mph 1017.2mb 56f 57f
5:30pm 25 32 mph 1017.1mb 56f 57f
5:24pm 28 33 mph 1017.1mb 56f 57f
5:18pm 24 29 mph 1017.1mb 56f 57f
5:06pm 24 28 mph 1016.8mb 56f 57f
5:00pm 23 28 mph 1016.7mb 56f 57f
4:54pm 26 29 mph 1016.6mb 56f 56f
4:48pm 22 30 mph 1016.4mb 56f 56f
4:42pm 26 31 mph 1016.1mb 56f 56f
4:36pm 14 28 mph 1016.7mb 56f 57f
4:30pm 22 26 mph 1016.4mb 56f 56f
4:24pm 22 25 mph 1016.5mb 56f 56f
4:18pm 22 26 mph 1016.4mb 56f 56f
4:12pm 23 28 mph 1016.3mb 56f 56f
4:06pm 26 34 mph 1016mb 56f 56f
4:00pm 24 29 mph 1015.8mb 56f 56f
3:54pm 21 29 mph 1016.2mb 56f 56f
3:48pm 25 29 mph 1015.7mb 56f 56f
3:42pm 22 28 mph 1015.8mb 56f 56f
3:36pm 22 26 mph 1015.7mb 56f 56f
3:30pm 21 26 mph 1015.5mb 56f 56f
3:24pm 21 26 mph 1015.5mb 56f 56f
3:18pm 23 30 mph 1015.4mb 56f 56f
3:12pm 23 28 mph 1015.1mb 56f 56f
3:06pm 23 30 mph 1015mb 56f 56f
3:00pm 22 29 mph 1015mb 56f 56f
2:54pm 25 32 mph 1015.1mb 56f 56f
2:48pm 24 34 mph 1014.8mb 56f 56f
2:42pm 23 29 mph 1014.4mb 56f 56f
2:36pm 23 30 mph 1014.8mb 56f 56f
2:30pm 25 31 mph 1014.8mb 56f 56f
2:24pm 24 31 mph 1014.7mb 56f 56f
2:18pm 25 29 mph 1014.7mb 56f 56f
2:12pm 26 31 mph 1014.8mb 56f 56f
2:06pm 23 31 mph 1014.7mb 56f 56f
2:00pm 28 32 mph 1014.6mb 56f 56f
1:54pm 25 32 mph 1014.9mb 56f 56f
1:48pm 28 32 mph 1014.6mb 56f 56f
1:42pm 26 33 mph 1014.6mb 56f 56f
1:36pm 25 30 mph 1014.6mb 56f 56f
1:30pm 25 33 mph 1014.8mb 56f 56f
1:24pm 23 28 mph 1014.9mb 56f 56f
1:18pm 23 30 mph 1015mb 56f 56f
1:12pm 26 32 mph 1014.9mb 56f 56f
1:06pm 24 33 mph 1014.6mb 56f 56f
1:00pm 28 32 mph 1014.6mb 56f 56f
12:54pm 26 33 mph 1014.7mb 56f 56f
12:48pm 26 33 mph 1014.6mb 56f 56f
12:42pm 30 34 mph 1014.5mb 56f 56f
12:36pm 28 36 mph 1014.2mb 56f 56f
12:30pm 25 33 mph 1014.6mb 56f 56f
12:24pm 29 34 mph 1014.4mb 56f 56f
12:18pm 28 34 mph 1014.6mb 56f 56f
12:06pm 30 37 mph 1014.8mb 56f 56f
12:00pm 26 34 mph 1014.9mb 56f 56f
11:54am 30 38 mph 1014.9mb 56f 55f
11:48am 29 33 mph 1015.2mb 56f 55f
11:42am 26 34 mph 1015.1mb 56f 55f
11:36am 28 34 mph 1015.3mb 56f 55f
11:30am 28 33 mph 1015.1mb 56f 55f
11:24am 29 34 mph 1014.9mb 56f 55f
11:18am 26 30 mph 1015.4mb 56f 55f
11:12am 28 36 mph 1015.3mb 56f 55f
11:06am 29 34 mph 1015mb 56f 55f
11:00am 28 33 mph 1014.9mb 56f 55f
10:54am 29 36 mph 1015mb 56f 55f
10:48am 30 36 mph 1015mb 56f 55f
10:42am 31 38 mph 1014.8mb 56f 55f
10:36am 26 36 mph 1014.8mb 56f 55f
10:30am 30 37 mph 1015mb 56f 55f
10:24am 29 36 mph 1014.8mb 56f 54f
10:18am 28 34 mph 1014.8mb 56f 54f
10:12am 30 36 mph 1014.8mb 56f 54f
10:06am 29 34 mph 1014.7mb 56f 54f
10:00am 29 36 mph 1014.8mb 56f 54f
9:54am 28 33 mph 1014.9mb 56f 54f
9:48am 30 36 mph 1014.8mb 56f 54f
9:42am 29 36 mph 1014.8mb 56f 54f
9:36am 32 38 mph 1014.7mb 56f 54f
9:30am 30 38 mph 1014.7mb 56f 55f
9:24am 32 41 mph 1014.5mb 56f 55f
9:18am 32 43 mph 1014.3mb 56f 56f
9:12am 33 40 mph 1014.1mb 56f 56f
9:06am 36 40 mph 1013.8mb 56f 56f
9:00am 38 44 mph 1013.7mb 56f 56f
8:54am 36 40 mph 1013.7mb 56f 55f
8:48am 33 40 mph 1013.6mb 56f 55f
8:42am 33 41 mph 1013.8mb 56f 55f
8:36am 32 38 mph 1013.9mb 56f 55f
8:30am 32 40 mph 1014.1mb 56f 55f
8:24am 32 43 mph 1013.9mb 56f 55f
8:18am 32 40 mph 1014.1mb 56f 55f
8:12am 34 43 mph 1013.8mb 56f 55f
8:06am 32 41 mph 1013.9mb 56f 55f
8:00am 33 39 mph 1013.8mb 56f 55f
7:54am 33 40 mph 1013.8mb 56f 55f
7:48am 33 40 mph 1013.7mb 56f 55f
7:42am 32 39 mph 1013.7mb 56f 54f
7:36am 30 39 mph 1013.9mb 56f 55f
7:30am 31 37 mph 1013.8mb 56f 54f
7:24am 31 38 mph 1014.2mb 56f 54f
7:18am 32 40 mph 1014.4mb 56f 54f
7:12am 31 38 mph 1014.5mb 56f 54f
7:06am 33 39 mph 1014.5mb 56f 54f
7:00am 30 37 mph 1014.6mb 56f 54f
6:54am 30 36 mph 1014.6mb 56f 54f
6:48am 29 37 mph 1014.6mb 56f 54f
6:42am 28 32 mph 1014.5mb 56f 54f
6:36am 28 34 mph 1014.5mb 56f 54f
6:30am 26 34 mph 1014.7mb 56f 54f
6:24am 26 34 mph 1014.6mb 56f 54f
6:18am 28 33 mph 1014.4mb 56f 54f
6:12am 29 33 mph 1014.5mb 56f 53f
6:06am 26 32 mph 1014.5mb 56f 54f
6:00am 28 33 mph 1014.6mb 56f 54f
5:54am 28 32 mph 1014.7mb 56f 54f
5:48am 28 32 mph 1014.7mb 56f 54f
5:42am 29 32 mph 1014.8mb 56f 53f
5:36am 29 33 mph 1014.8mb 56f 54f
5:30am 26 33 mph 1014.9mb 56f 54f
5:24am 28 33 mph 1015mb 56f 54f
5:18am 28 36 mph 1015.2mb 56f 54f
5:12am 29 32 mph 1015.3mb 56f 53f
5:06am 25 31 mph 1015.2mb 56f 53f
5:00am 25 32 mph 1015.2mb 56f 53f
4:54am 26 32 mph 1015.5mb 56f 53f
4:48am 25 31 mph 1015.7mb 56f 53f
4:42am 22 28 mph 1015.7mb 56f 53f
4:36am 22 30 mph 1015.9mb 56f 54f
4:30am 25 32 mph 1016mb 56f 54f
4:24am 24 30 mph 1016.1mb 56f 54f
4:18am 22 30 mph 1016.2mb 56f 54f
4:12am 25 32 mph 1016.1mb 56f 54f
4:06am 23 30 mph 1016.1mb 56f 54f
4:00am 25 30 mph 1016.2mb 56f 54f
3:54am 25 33 mph 1016.1mb 56f 54f
3:48am 25 31 mph 1016mb 56f 54f
3:42am 26 31 mph 1016.2mb 56f 54f
3:30am 25 31 mph 1016.4mb 56f 54f
3:24am 23 30 mph 1016.3mb 56f 54f
3:18am 25 31 mph 1016.4mb 56f 54f
3:12am 23 30 mph 1016.6mb 56f 55f
3:06am 25 37 mph 1016.5mb 56f 55f
3:00am 29 36 mph 1016.3mb 56f 54f
2:54am 31 36 mph 1016.3mb 56f 54f
2:48am 25 31 mph 1016.3mb 56f 54f
2:42am 24 30 mph 1016.5mb 56f 54f
2:36am 25 30 mph 1016.4mb 56f 54f
2:30am 17 29 mph 1016.8mb 56f 53f
2:24am 24 33 mph 1016.5mb 56f 54f
2:18am 28 34 mph 1016.3mb 56f 54f
2:12am 30 34 mph 1016.1mb 56f 54f
2:06am 26 33 mph 1016.2mb 56f 54f
2:00am 18 26 mph 1016.5mb 56f 54f
1:54am 22 29 mph 1016mb 56f 54f
1:48am 24 29 mph 1016.4mb 56f 54f
1:42am 26 33 mph 1016.3mb 56f 54f
1:36am 26 32 mph 1016mb 56f 54f
1:30am 26 31 mph 1015.8mb 56f 54f
1:24am 22 30 mph 1015.6mb 56f 54f
1:18am 25 34 mph 1015.5mb 56f 54f
1:12am 29 33 mph 1015.2mb 56f 54f
1:06am 25 34 mph 1015.2mb 56f 54f
1:00am 25 32 mph 1015.3mb 56f 54f
12:54am 26 33 mph 1015.3mb 56f 54f
12:48am 24 33 mph 1015.1mb 56f 54f
12:42am 28 32 mph 1015.1mb 56f 54f
12:36am 25 32 mph 1015.4mb 56f 54f
12:30am 29 36 mph 1015.3mb 56f 54f
12:24am 29 34 mph 1015.2mb 57f 54f
12:18am 28 33 mph 1015.5mb 57f 55f
12:12am 28 32 mph 1015.8mb 56f 54f
12:06am 24 29 mph 1016.1mb 56f 54f
12:00am 22 29 mph 1016.4mb 56f 54f
Fri 12/19 11:54pm 22 26 mph 1016.6mb 56f 54f
11:48pm 23 29 mph 1016.6mb 56f 54f
11:42pm 23 30 mph 1016.7mb 56f 54f
11:36pm 22 25 mph 1016.5mb 56f 54f
11:30pm 22 31 mph 1016.6mb 56f 54f
11:24pm 25 30 mph 1016.5mb 56f 54f
11:18pm 24 32 mph 1016.5mb 56f 54f
11:12pm 28 32 mph 1016.2mb 56f 54f
11:06pm 26 33 mph 1016.2mb 57f 54f
11:00pm 28 33 mph 1016.1mb 57f 54f
10:54pm 29 33 mph 1016.2mb 56f 54f
10:48pm 29 32 mph 1016.2mb 56f 54f
10:42pm 29 34 mph 1016.2mb 56f 54f
10:36pm 29 34 mph 1016.1mb 57f 54f
10:30pm 28 33 mph 1016.2mb 57f 54f
10:24pm 25 33 mph 1016.6mb 56f 54f
10:18pm 26 33 mph 1016.7mb 57f 54f
10:12pm 29 34 mph 1016.6mb 57f 54f
10:06pm 29 34 mph 1016.4mb 56f 55f
10:00pm 28 33 mph 1016.3mb 56f 55f
9:54pm 28 32 mph 1016.4mb 56f 55f
9:48pm 24 31 mph 1016.7mb 57f 54f
9:42pm 26 31 mph 1016.8mb 57f 54f
9:36pm 28 32 mph 1016.6mb 57f 55f
9:30pm 26 31 mph 1016.6mb 57f 55f
9:24pm 24 30 mph 1017.1mb 57f 55f
9:18pm 22 29 mph 1017.4mb 57f 55f
9:12pm 24 30 mph 1017.2mb 57f 55f
9:06pm 21 26 mph 1017.3mb 57f 55f
9:00pm 23 29 mph 1017.1mb 57f 55f
8:54pm 23 26 mph 1017mb 57f 55f
8:48pm 22 25 mph 1017.2mb 57f 55f
8:42pm 20 23 mph 1017.2mb 57f 55f
8:36pm 17 22 mph 1017.6mb 57f 55f
8:30pm 18 22 mph 1017.5mb 57f 55f
8:24pm 18 22 mph 1017.5mb 56f 56f
8:18pm 17 22 mph 1017.5mb 56f 55f
8:12pm 17 23 mph 1017.4mb 56f 55f
8:06pm 21 24 mph 1017.4mb 56f 56f
8:00pm 16 22 mph 1017.3mb 56f 56f
7:54pm 18 22 mph 1017.4mb 56f 56f
7:48pm 18 23 mph 1017.4mb 56f 56f
7:42pm 18 23 mph 1017.3mb 56f 56f
7:36pm 18 23 mph 1017.1mb 56f 56f
7:30pm 17 23 mph 1017mb 56f 56f
7:24pm 20 29 mph 1016.7mb 56f 56f
7:18pm 23 26 mph 1016.4mb 56f 56f
7:12pm 23 28 mph 1016.5mb 56f 56f
7:06pm 21 25 mph 1016.3mb 56f 56f
7:00pm 22 25 mph 1016.3mb 56f 56f
6:54pm 22 24 mph 1016.1mb 56f 56f
6:48pm 23 30 mph 1016.3mb 56f 55f
6:42pm 17 23 mph 1016.3mb 56f 55f
6:36pm 17 22 mph 1016.3mb 56f 55f
6:30pm 18 23 mph 1016.4mb 56f 55f
6:24pm 23 32 mph 1016.4mb 56f 55f
6:18pm 23 31 mph 1016.3mb 56f 56f
6:12pm 24 28 mph 1016.2mb 56f 56f
6:06pm 21 25 mph 1016.4mb 56f 56f
6:00pm 16 20 mph 1016.7mb 56f 56f
5:54pm 15 22 mph 1016.7mb 56f 55f
5:48pm 16 24 mph 1017mb 56f 55f
5:42pm 17 20 mph 1017.1mb 56f 55f
5:36pm 16 22 mph 1017mb 56f 55f
5:30pm 15 20 mph 1017.3mb 56f 56f
5:24pm 14 20 mph 1017.4mb 56f 56f
5:12pm 17 21 mph 1017.7mb 56f 56f
5:06pm 18 21 mph 1017.6mb 56f 56f
5:00pm 17 22 mph 1017.6mb 56f 56f
4:54pm 20 28 mph 1017.7mb 56f 56f
4:48pm 23 28 mph 1017.7mb 56f 56f
4:42pm 22 29 mph 1017.6mb 56f 57f
4:36pm 21 24 mph 1017.6mb 56f 56f
4:30pm 16 21 mph 1017.7mb 56f 55f
4:24pm 14 16 mph 1018mb 56f 56f
4:18pm 13 29 mph 1018mb 56f 54f
4:12pm 22 26 mph 1018.1mb 56f 54f
4:06pm 18 22 mph 1017.8mb 56f 56f
4:00pm 18 22 mph 1017.8mb 56f 56f
3:54pm 21 23 mph 1017.9mb 56f 55f
3:48pm 18 26 mph 1018mb 56f 55f
3:42pm 21 23 mph 1017.9mb 56f 55f
3:36pm 18 22 mph 1017.8mb 56f 55f
3:30pm 21 24 mph 1017.8mb 56f 55f
3:24pm 15 18 mph 1017.7mb 56f 56f
3:18pm 15 20 mph 1017.8mb 56f 55f
3:12pm 15 17 mph 1017.9mb 56f 55f
3:06pm 16 22 mph 1017.8mb 56f 55f
3:00pm 20 23 mph 1017.7mb 56f 55f
2:54pm 17 23 mph 1017.7mb 56f 56f
2:48pm 16 18 mph 1017.7mb 56f 56f
2:42pm 16 20 mph 1017.6mb 56f 55f
2:36pm 17 22 mph 1017.5mb 56f 55f
2:30pm 17 23 mph 1017.4mb 56f 55f
2:24pm 21 22 mph 1017.4mb 56f 55f
2:12pm 20 25 mph 1017.7mb 56f 55f
2:06pm 21 25 mph 1017.9mb 56f 55f
2:00pm 20 24 mph 1018.1mb 56f 55f
1:54pm 14 22 mph 1018.1mb 56f 55f
1:48pm 17 22 mph 1018.3mb 56f 55f
1:42pm 16 23 mph 1018.4mb 56f 55f
1:36pm 18 22 mph 1018.4mb 56f 55f
1:30pm 18 22 mph 1018.4mb 56f 55f
1:24pm 16 21 mph 1018.5mb 56f 55f
1:18pm 17 23 mph 1018.5mb 56f 55f
1:12pm 20 24 mph 1018.5mb 56f 55f
1:06pm 21 25 mph 1018.4mb 56f 55f
1:00pm 20 24 mph 1018.4mb 56f 55f
12:54pm 20 24 mph 1018.5mb 56f 55f
12:48pm 13 17 mph 1018.4mb 57f 55f
12:42pm 13 15 mph 1018.4mb 57f 55f
12:36pm 13 21 mph 1018.5mb 57f 55f
12:30pm 15 18 mph 1018.4mb 57f 55f
12:24pm 11 16 mph 1018.5mb 57f 54f
12:18pm 10 17 mph 1018.5mb 57f 54f
12:12pm 13 18 mph 1018.4mb 57f 54f
12:06pm 15 18 mph 1018.4mb 57f 54f
12:00pm 15 20 mph 1018.2mb 57f 54f
11:54am 11 17 mph 1018.2mb 57f 54f
11:48am 8 17 mph 1018.4mb 57f 54f
11:42am 18 23 mph 1018.3mb 57f 54f
11:36am 11 16 mph 1018.2mb 57f 54f
11:30am 11 17 mph 1018.3mb 57f 53f
11:24am 16 23 mph 1018.2mb 57f 54f
11:18am 20 22 mph 1018.4mb 57f 54f
11:12am 6 11 mph 1018.4mb 57f 53f
11:06am 6 10 mph 1018.3mb 57f 53f
11:00am 13 18 mph 1018.4mb 57f 53f
10:54am 17 24 mph 1018.3mb 57f 54f
10:48am 15 21 mph 1018.2mb 57f 54f
10:42am 13 21 mph 1018.2mb 57f 54f
10:36am 15 17 mph 1018.2mb 57f 54f
10:30am 10 16 mph 1018.4mb 57f 53f
10:24am 2 7 mph 1018.4mb 57f 53f
10:18am 8 10 mph 1018.4mb 57f 53f
10:12am 5 6 mph 1018.3mb 57f 51f
10:06am 5
mph
1018.1mb 57f 52f
10:00am 5 6 mph 1018mb 57f 52f
9:54am 6 7 mph 1017.7mb 57f 52f
9:48am 6
mph
1017.6mb 57f 52f
9:42am 5 7 mph 1017.7mb 57f 52f
9:36am 7 13 mph 1017.8mb 57f 52f
9:30am 13 15 mph 1017.8mb 57f 53f
9:24am 14 18 mph 1017.6mb 57f 53f
9:18am 11 17 mph 1017.6mb 57f 53f
9:12am 13 16 mph 1017.5mb 57f 53f
9:06am 13 15 mph 1017.3mb 57f 53f
9:00am 14 15 mph 1017.3mb 57f 53f
8:54am 14 16 mph 1017.3mb 57f 53f
8:48am 14 17 mph 1017.2mb 57f 52f
8:42am 16 20 mph 1017.2mb 57f 52f
8:36am 20 21 mph 1017.1mb 57f 53f
8:30am 20 22 mph 1017.1mb 57f 53f
8:24am 18 22 mph 1017.2mb 57f 53f
8:18am 18 22 mph 1017.1mb 57f 53f
8:12am 20 22 mph 1017mb 57f 54f
8:06am 17 21 mph 1017mb 57f 54f
8:00am 17 21 mph 1016.9mb 57f 54f
7:54am 17 25 mph 1016.9mb 57f 54f
7:48am 20 23 mph 1016.9mb 57f 53f
7:42am 21 23 mph 1017.1mb 57f 53f
7:36am 18 23 mph 1017.2mb 57f 53f
7:30am 3 5 mph 1017.2mb 57f 52f
7:24am 6 7 mph 1017.2mb 57f 52f
7:18am 5 6 mph 1017.1mb 57f 51f
7:12am 5 9 mph 1017.1mb 57f 51f
7:06am 10 11 mph 1017mb 57f 51f
7:00am 10 15 mph 1016.8mb 57f 52f
6:54am 8 17 mph 1017.1mb 57f 52f
6:48am 14 17 mph 1017mb 57f 54f
6:42am 7 14 mph 1017.1mb 57f 54f
6:36am 14 17 mph 1017.1mb 57f 54f
6:30am 16 21 mph 1017mb 57f 53f
6:24am 13 16 mph 1016.7mb 57f 52f
6:18am 14 23 mph 1016.7mb 57f 53f
6:12am 11 15 mph 1016.6mb 57f 55f
6:06am 8 16 mph 1016.7mb 56f 55f
6:00am 14 17 mph 1016.5mb 56f 54f
5:54am 13 16 mph 1016.3mb 57f 53f
5:48am 9 11 mph 1016.1mb 56f 53f
5:42am 6 9 mph 1016.1mb 56f 53f
5:36am 10 17 mph 1016mb 56f 53f
5:30am 16 22 mph 1015.7mb 56f 53f
5:24am 16 21 mph 1015.6mb 56f 53f
5:18am 17 20 mph 1015.5mb 56f 53f
5:12am 17 21 mph 1015.7mb 56f 53f
5:06am 16 20 mph 1015.6mb 56f 54f
5:00am 16 20 mph 1015.5mb 56f 54f
4:54am 18 22 mph 1015.5mb 56f 54f
4:48am 18 22 mph 1015.5mb 56f 54f
4:42am 18 22 mph 1015.7mb 56f 54f
4:36am 18 22 mph 1015.7mb 56f 54f
4:30am 18 23 mph 1015.6mb 56f 54f
4:24am 20 22 mph 1015.5mb 56f 54f
4:18am 17 22 mph 1015.7mb 56f 54f
4:12am 16 20 mph 1015.8mb 56f 54f
4:06am 16 21 mph 1015.8mb 56f 54f
4:00am 16 20 mph 1015.6mb 56f 54f
3:54am 14 16 mph 1015.7mb 56f 54f
3:48am 10 14 mph 1015.7mb 56f 54f
3:42am 11 14 mph 1015.6mb 56f 54f
3:36am 11 14 mph 1015.7mb 56f 54f
3:30am 13 16 mph 1015.7mb 56f 54f
3:24am 14 16 mph 1015.8mb 56f 54f
3:18am 14 17 mph 1015.7mb 56f 54f
3:12am 15 17 mph 1015.7mb 56f 54f
3:06am 14 16 mph 1015.8mb 56f 54f
3:00am 15 16 mph 1015.7mb 56f 53f
2:54am 14 18 mph 1015.8mb 56f 53f
2:48am 15 18 mph 1015.9mb 56f 53f
2:42am 13 15 mph 1015.8mb 56f 53f
2:36am 10 13 mph 1015.8mb 56f 52f
2:30am 3 6 mph 1015.8mb 56f 51f
2:24am 5 9 mph 1015.8mb 56f 51f
2:18am 3 7 mph 1015.9mb 56f 51f
2:12am 8 11 mph 1015.9mb 56f 51f
2:06am 3 6 mph 1015.9mb 56f 51f
2:00am 3 7 mph 1016mb 57f 51f
1:54am 6 7 mph 1015.9mb 57f 52f
1:48am 6 8 mph 1015.9mb 56f 52f
1:42am 7 9 mph 1015.9mb 56f 52f
1:36am 7 9 mph 1015.7mb 56f 52f
1:30am 9 10 mph 1015.8mb 56f 51f
1:24am 8 11 mph 1015.7mb 56f 51f
1:18am 2 3 mph 1015.6mb 56f 50f
1:12am 5 8 mph 1015.5mb 56f 50f
1:06am 7 10 mph 1015.3mb 56f 50f
1:00am 7 11 mph 1015.3mb 56f 50f
12:54am 7 11 mph 1015.4mb 56f 50f
12:48am 9 14 mph 1015.3mb 56f 51f
12:42am 11 14 mph 1015.4mb 56f 51f
12:36am 13 14 mph 1015.7mb 56f 51f
12:30am 10 15 mph 1015.6mb 56f 51f
12:24am 11 14 mph 1015.6mb 56f 51f
12:18am 10 11 mph 1015.9mb 56f 51f
12:12am 10 13 mph 1016mb 56f 51f
12:06am 10 11 mph 1016.1mb 56f 50f
12:00am 9 10 mph 1015.9mb 56f 50f
Thu 12/18 11:54pm 7 9 mph 1015.8mb 56f 50f
11:48pm 5 8 mph 1016.1mb 56f 50f
11:42pm 6 10 mph 1015.9mb 56f 50f
11:36pm 10 13 mph 1016.2mb 56f 51f
11:30pm 10 17 mph 1016mb 56f 51f
11:24pm 16 17 mph 1016.1mb 56f 51f
11:18pm 13 14 mph 1016.2mb 56f 51f
11:12pm 10 11 mph 1015.9mb 56f 50f
11:06pm 6 8 mph 1015.7mb 56f 50f
11:00pm 6 7 mph 1015.4mb 56f 51f
10:54pm 1 3 mph 1015.8mb 56f 51f
10:48pm 3 7 mph 1015.3mb 56f 51f
10:42pm 8 11 mph 1016.6mb 56f 51f
10:36pm 7
mph
1016.1mb 56f 51f
10:30pm 5 10 mph 1015.7mb 56f 51f
10:24pm 8 9 mph 1015.5mb 56f 51f
10:18pm 8 18 mph 1015.3mb 56f 51f
10:12pm 11 24 mph 1015.3mb 56f 53f
10:06pm 21 24 mph 1015.4mb 56f 53f
10:00pm 14 22 mph 1015.2mb 56f 53f
9:54pm 21 26 mph 1015.1mb 56f 53f
9:48pm 20 26 mph 1014.3mb 56f 53f
9:42pm 25 38 mph 1013.9mb 56f 53f
9:36pm 31 36 mph 1013.2mb 56f 53f
9:30pm 26 30 mph 1013.6mb 56f 54f
9:24pm 24 30 mph 1013.7mb 56f 54f
9:18pm 25 31 mph 1013.6mb 56f 54f
9:12pm 25 32 mph 1013.5mb 56f 54f
9:06pm 24 30 mph 1013.5mb 56f 54f
9:00pm 23 29 mph 1013.6mb 56f 54f
8:54pm 24 29 mph 1013.4mb 56f 54f
8:48pm 21 26 mph 1013.7mb 56f 55f
8:42pm 23 29 mph 1014.1mb 56f 55f
8:36pm 22 28 mph 1014.1mb 56f 55f
8:30pm 24 32 mph 1013.9mb 56f 55f
8:24pm 25 33 mph 1013.9mb 56f 55f
8:18pm 25 32 mph 1013.7mb 56f 56f
8:12pm 28 32 mph 1013.3mb 56f 56f
8:06pm 26 36 mph 1013.1mb 56f 56f
8:00pm 25 31 mph 1013mb 56f 56f
7:54pm 26 33 mph 1013.1mb 56f 55f
7:48pm 28 34 mph 1013.2mb 56f 55f
7:42pm 26 33 mph 1013.4mb 56f 56f
7:36pm 24 32 mph 1013.5mb 56f 56f
7:30pm 25 31 mph 1013.5mb 56f 56f
7:24pm 22 29 mph 1013.5mb 56f 56f
7:18pm 21 24 mph 1013.6mb 56f 55f
7:12pm 20 25 mph 1013.6mb 56f 55f
7:06pm 20 25 mph 1013.7mb 56f 55f
7:00pm 20 25 mph 1013.7mb 56f 55f
6:54pm 20 24 mph 1013.6mb 56f 55f
6:48pm 21 23 mph 1013.6mb 56f 55f
6:42pm 18 24 mph 1013.6mb 56f 55f
6:36pm 20 28 mph 1013.6mb 56f 55f
6:30pm 23 28 mph 1013.7mb 56f 55f
6:24pm 22 25 mph 1013.8mb 56f 55f
6:18pm 21 26 mph 1013.7mb 56f 56f
6:12pm 21 23 mph 1013.7mb 56f 56f
6:06pm 18 23 mph 1013.7mb 56f 56f
6:00pm 18 22 mph 1013.7mb 56f 56f
5:54pm 17 22 mph 1013.8mb 56f 56f
5:48pm 18 22 mph 1013.7mb 56f 56f
5:42pm 14 20 mph 1013.9mb 56f 56f
5:36pm 17 20 mph 1013.9mb 56f 56f
5:30pm 15 20 mph 1013.8mb 56f 56f
5:24pm 16 22 mph 1013.6mb 56f 56f
5:18pm 17 20 mph 1013.7mb 56f 57f
5:12pm 15 20 mph 1013.8mb 56f 57f
5:06pm 17 20 mph 1013.8mb 56f 57f
5:00pm 17 20 mph 1013.8mb 56f 57f
4:54pm 16 20 mph 1013.9mb 56f 57f
4:48pm 16 21 mph 1013.9mb 55f 57f
4:42pm 17 21 mph 1013.8mb 56f 58f
4:24pm 15 23 mph 1014.1mb 55f 58f
4:18pm 16 23 mph 1014.1mb 55f 58f
4:12pm 15 20 mph 1014.1mb 56f 58f
4:06pm 16 21 mph 1014.1mb 55f 58f
4:00pm 17 22 mph 1014.1mb 55f 58f
3:54pm 17 21 mph 1014.2mb 56f 58f
3:48pm 17 20 mph 1014.3mb 55f 58f
3:36pm 20 25 mph 1013.9mb 56f 58f
3:30pm 20 25 mph 1013.7mb 56f 58f
3:24pm 20 24 mph 1013.6mb 56f 58f
3:18pm 20 28 mph 1013.4mb 56f 58f
3:12pm 21 25 mph 1013.4mb 56f 58f
3:06pm 22 26 mph 1013.3mb 56f 58f
3:00pm 21 24 mph 1013.5mb 56f 58f
2:54pm 21 23 mph 1013.6mb 56f 58f
2:48pm 17 23 mph 1013.8mb 56f 58f
2:42pm 17 23 mph 1014mb 56f 58f
2:36pm 20 24 mph 1013.9mb 56f 58f
2:30pm 17 23 mph 1014.1mb 56f 58f
2:24pm 18 23 mph 1014.1mb 56f 58f
2:18pm 20 24 mph 1014mb 56f 58f
2:12pm 20 23 mph 1013.9mb 56f 58f
2:06pm 20 23 mph 1014.2mb 56f 58f
2:00pm 20 22 mph 1014.1mb 56f 58f
1:54pm 17 22 mph 1014.2mb 56f 58f
1:48pm 20 23 mph 1014.2mb 56f 58f
1:42pm 17 22 mph 1014.4mb 56f 58f
1:36pm 20 23 mph 1014.5mb 56f 58f
1:30pm 18 22 mph 1014.7mb 56f 58f
1:24pm 18 23 mph 1014.9mb 56f 58f
1:18pm 17 23 mph 1015mb 56f 58f
1:12pm 18 23 mph 1015mb 56f 58f
1:06pm 17 22 mph 1015.1mb 56f 58f
1:00pm 17 22 mph 1015.1mb 56f 58f
12:54pm 20 25 mph 1015.2mb 56f 58f
12:48pm 20 24 mph 1015.3mb 56f 58f
12:42pm 18 23 mph 1015.5mb 56f 58f
12:36pm 21 25 mph 1015.6mb 56f 59f
12:30pm 21 28 mph 1015.6mb 56f 59f
12:24pm 23 25 mph 1015.6mb 56f 59f
12:18pm 21 28 mph 1015.7mb 56f 59f
12:12pm 21 24 mph 1015.7mb 56f 59f
12:06pm 20 23 mph 1015.9mb 56f 59f
12:00pm 20 24 mph 1016.1mb 56f 59f
11:54am 20 23 mph 1016.3mb 56f 59f
11:48am 20 23 mph 1016.4mb 56f 59f
11:42am 21 24 mph 1016.4mb 56f 59f
11:36am 21 24 mph 1016.5mb 56f 59f
11:30am 18 24 mph 1016.7mb 56f 59f
11:24am 21 24 mph 1016.7mb 56f 59f
11:18am 20 23 mph 1016.8mb 56f 58f
11:12am 20 26 mph 1016.9mb 56f 58f
11:06am 20 25 mph 1017mb 56f 59f
11:00am 22 25 mph 1016.9mb 56f 58f
10:54am 22 25 mph 1016.9mb 56f 58f
10:48am 18 24 mph 1017.1mb 56f 58f
10:42am 20 23 mph 1017.3mb 56f 58f
10:36am 17 23 mph 1017.4mb 56f 58f
10:30am 17 22 mph 1017.4mb 56f 58f
10:24am 20 23 mph 1017.4mb 56f 58f
10:18am 18 22 mph 1017.2mb 56f 58f
10:12am 20 23 mph 1017.3mb 56f 58f
10:06am 20 24 mph 1017.3mb 56f 58f
10:00am 20 23 mph 1017.2mb 56f 58f
9:54am 20 24 mph 1017.1mb 56f 58f
9:48am 20 24 mph 1016.9mb 56f 58f
9:42am 20 22 mph 1016.5mb 56f 58f
9:36am 22 25 mph 1016.5mb 56f 58f
9:30am 20 24 mph 1016.5mb 56f 58f
9:24am 18 29 mph 1016.3mb 56f 58f
9:18am 22 25 mph 1016.4mb 56f 58f
9:12am 20 24 mph 1016.4mb 56f 58f
9:06am 20 24 mph 1016.6mb 56f 58f
9:00am 20 24 mph 1016.6mb 56f 58f
8:48am 20 23 mph 1016.4mb 56f 58f
8:42am 22 25 mph 1016.2mb 56f 58f
8:36am 22 26 mph 1016.2mb 56f 58f
8:30am 23 28 mph 1016mb 56f 58f
8:24am 21 24 mph 1016.1mb 56f 57f
8:18am 21 25 mph 1016.3mb 56f 57f
8:12am 21 25 mph 1016.2mb 56f 57f
8:06am 20 24 mph 1016.4mb 56f 57f
7:54am 21 25 mph 1016.2mb 56f 58f
7:48am 20 24 mph 1016.2mb 56f 58f
7:42am 20 25 mph 1016.1mb 56f 58f
7:36am 22 26 mph 1015.9mb 56f 58f
7:30am 21 26 mph 1015.7mb 56f 58f
7:24am 24 30 mph 1015.4mb 56f 58f
7:18am 22 28 mph 1015.8mb 56f 58f
7:12am 22 25 mph 1016mb 56f 58f
7:06am 20 28 mph 1015.9mb 56f 58f
7:00am 22 24 mph 1016.3mb 56f 58f
6:54am 20 26 mph 1016.4mb 56f 58f
6:48am 20 24 mph 1016.3mb 56f 58f
6:42am 20 23 mph 1016.1mb 56f 58f
6:36am 18 23 mph 1015.9mb 56f 58f
6:30am 21 25 mph 1015.8mb 56f 58f
6:24am 17 22 mph 1015.7mb 56f 58f
6:18am 13 18 mph 1015.6mb 56f 57f
6:12am 15 18 mph 1015.3mb 56f 57f
6:06am 15 21 mph 1015.2mb 56f 57f
6:00am 16 21 mph 1015mb 56f 57f
5:54am 15 18 mph 1014.8mb 56f 56f
5:48am 16 22 mph 1014.6mb 56f 56f
5:42am 17 23 mph 1014.7mb 56f 56f
5:36am 18 23 mph 1014.7mb 56f 56f
5:30am 17 21 mph 1014.8mb 56f 56f
5:24am 16 22 mph 1014.9mb 56f 56f
5:18am 15 28 mph 1015mb 56f 57f
5:12am 17 28 mph 1015mb 56f 57f
5:06am 14 18 mph 1015.2mb 56f 56f
5:00am 13 17 mph 1015.1mb 56f 55f
4:54am 13 17 mph 1015.2mb 57f 55f
4:48am 15 18 mph 1015.2mb 56f 55f
4:42am 18 21 mph 1015.3mb 56f 55f
4:36am 18 22 mph 1015.2mb 57f 55f
4:30am 17 25 mph 1014.9mb 57f 55f
4:24am 16 23 mph 1014.8mb 56f 55f
4:18am 21 25 mph 1014.8mb 56f 55f
4:12am 17 24 mph 1015mb 56f 55f
4:06am 20 22 mph 1015.1mb 56f 55f
4:00am 17 24 mph 1015.2mb 56f 55f
3:48am 16 23 mph 1015.2mb 56f 55f
3:42am 18 22 mph 1015.3mb 57f 55f
3:36am 17 23 mph 1015.4mb 56f 55f
3:30am 15 22 mph 1015.5mb 56f 55f
3:24am 15 20 mph 1015.6mb 56f 55f
3:18am 15 20 mph 1015.6mb 56f 55f
3:12am 18 30 mph 1015.5mb 56f 55f
3:06am 22 28 mph 1015.4mb 56f 55f
3:00am 22 25 mph 1015.4mb 56f 55f
2:54am 21 28 mph 1015.6mb 56f 55f
2:48am 20 26 mph 1015.5mb 56f 56f
2:42am 15 23 mph 1015.4mb 56f 55f
2:36am 16 20 mph 1015.4mb 56f 55f
2:30am 15 20 mph 1015.2mb 56f 55f
2:24am 16 18 mph 1015.2mb 56f 55f
2:18am 15 17 mph 1015.1mb 56f 55f
2:12am 14 17 mph 1015mb 56f 54f
2:06am 15 22 mph 1014.8mb 56f 54f
2:00am 14 20 mph 1014.8mb 56f 55f
1:54am 16 22 mph 1014.9mb 56f 55f
1:48am 18 25 mph 1014.9mb 56f 55f
1:42am 18 23 mph 1014.9mb 56f 55f
1:36am 16 20 mph 1014.7mb 56f 55f
1:30am 16 22 mph 1014.7mb 56f 55f
1:24am 15 20 mph 1014.8mb 56f 55f
1:18am 20 23 mph 1014.8mb 56f 55f
1:12am 17 22 mph 1014.8mb 56f 55f
1:06am 20 24 mph 1014.7mb 56f 55f
1:00am 20 25 mph 1014.5mb 56f 55f
12:54am 18 24 mph 1014.5mb 56f 55f
12:48am 20 24 mph 1014.5mb 56f 55f
12:42am 21 25 mph 1014.4mb 56f 55f
12:36am 22 25 mph 1014.5mb 56f 55f
12:30am 20 24 mph 1014.6mb 57f 55f
12:24am 20 24 mph 1014.8mb 56f 55f
12:18am 21 24 mph 1014.9mb 56f 55f
12:12am 20 23 mph 1015mb 57f 55f
12:06am 21 24 mph 1014.9mb 56f 55f
12:00am 21 25 mph 1014.9mb 57f 55f
Wed 12/17 11:54pm 18 22 mph 1014.9mb 57f 55f
11:48pm 17 21 mph 1014.9mb 57f 56f
11:42pm 16 22 mph 1014.9mb 56f 55f
11:36pm 15 17 mph 1014.9mb 56f 55f
11:30pm 17 21 mph 1014.8mb 57f 55f
11:24pm 17 21 mph 1014.7mb 56f 55f
11:18pm 20 23 mph 1014.6mb 57f 55f
11:12pm 18 21 mph 1014.6mb 57f 55f
11:06pm 17 21 mph 1014.6mb 57f 55f
11:00pm 17 24 mph 1014.6mb 57f 55f
10:54pm 20 24 mph 1014.5mb 57f 55f
10:48pm 17 25 mph 1014.5mb 57f 56f
10:42pm 17 21 mph 1014.4mb 57f 55f
10:36pm 17 22 mph 1014.3mb 57f 56f
10:30pm 18 22 mph 1014.2mb 57f 56f
10:24pm 18 22 mph 1014.1mb 57f 55f
10:18pm 14 20 mph 1014mb 57f 55f
10:12pm 11 15 mph 1014mb 57f 55f
10:06pm 10 15 mph 1014mb 57f 55f
10:00pm 11 17 mph 1013.9mb 57f 55f
9:54pm 14 18 mph 1013.8mb 57f 55f
9:48pm 14 20 mph 1013.7mb 57f 55f
9:42pm 13 17 mph 1013.7mb 57f 55f
9:36pm 14 20 mph 1013.6mb 57f 55f
9:30pm 17 21 mph 1013.6mb 57f 56f
9:24pm 13 20 mph 1013.7mb 57f 55f
9:18pm 11 17 mph 1013.9mb 57f 54f
9:12pm 2 6 mph 1014.1mb 57f 52f
9:06pm 2 6 mph 1014mb 57f 52f
9:00pm 3 5 mph 1014mb 57f 51f
8:54pm 5 6 mph 1014mb 57f 51f
8:48pm 5 6 mph 1014mb 57f 51f
8:42pm 3 5 mph 1014mb 57f 51f
8:36pm 5 6 mph 1014mb 57f 51f
8:30pm 3 7 mph 1014mb 57f 51f
8:24pm 5 6 mph 1013.9mb 57f 51f
8:18pm 6 8 mph 1013.8mb 57f 51f
8:12pm 5 7 mph 1013.9mb 57f 51f
8:06pm 6 8 mph 1013.8mb 57f 50f
8:00pm 6
mph
1013.7mb 57f 50f
7:54pm 6 7 mph 1013.8mb 57f 50f
7:48pm 5 6 mph 1013.7mb 57f 50f
7:42pm 5 7 mph 1013.7mb 56f 51f
7:36pm 5 7 mph 1013.7mb 57f 51f
7:30pm 5 11 mph 1013.8mb 57f 51f
7:24pm 10 15 mph 1013.7mb 56f 52f
7:18pm 9 15 mph 1013.7mb 57f 52f
7:12pm 9 13 mph 1013.8mb 56f 52f
7:06pm 8 10 mph 1013.8mb 56f 51f
7:00pm 5 6 mph 1013.8mb 56f 50f
6:54pm 2 3 mph 1013.8mb 56f 49f
6:48pm 1 3 mph 1013.8mb 56f 50f
6:42pm 2 5 mph 1013.8mb 56f 50f
6:36pm 1 3 mph 1013.8mb 56f 50f
6:24pm 2
mph
1013.9mb 56f 50f
6:18pm 1 5 mph 1013.8mb 56f 50f
6:12pm 5 7 mph 1013.8mb 56f 50f
6:06pm 5 7 mph 1013.8mb 56f 49f
6:00pm 5 6 mph 1013.7mb 56f 49f
5:54pm 6 7 mph 1013.6mb 56f 49f
5:48pm 5 6 mph 1013.6mb 56f 49f
5:42pm 3 6 mph 1013.6mb 56f 50f
5:36pm 6 7 mph 1013.6mb 56f 50f
5:30pm 5 7 mph 1013.6mb 56f 50f
5:24pm 6 8 mph 1013.6mb 56f 50f
5:18pm 7 9 mph 1013.7mb 56f 51f
5:12pm 5 7 mph 1013.8mb 56f 51f
5:00pm 3 5 mph 1013.7mb 56f 50f
4:54pm 5 6 mph 1013.7mb 56f 50f
4:48pm 3 6 mph 1013.5mb 56f 50f
4:42pm 3 8 mph 1013.4mb 56f 52f
4:36pm 7 9 mph 1013.4mb 56f 52f
4:30pm 8 10 mph 1013.3mb 56f 52f
4:24pm 8 9 mph 1013.3mb 56f 52f
4:18pm 6 10 mph 1013.3mb 56f 52f
4:12pm 8 10 mph 1013.2mb 56f 52f
4:00pm 9 11 mph 1013.3mb 56f 53f